Year,Month,Day,Hour,Minute,Value (Times are PST for temperature in C)
2014,08,08,00,00,17.10
2014,08,08,00,01,17.10
2014,08,08,00,02,17.10
2014,08,08,00,03,17.10
2014,08,08,00,04,17.10
2014,08,08,00,05,17.10
2014,08,08,00,06,17.20
2014,08,08,00,07,17.20
2014,08,08,00,08,17.20
2014,08,08,00,09,17.20
2014,08,08,00,10,17.30
2014,08,08,00,11,17.40
2014,08,08,00,12,17.50
2014,08,08,00,13,17.60
2014,08,08,00,14,17.70
2014,08,08,00,15,17.80
2014,08,08,00,16,18.00
2014,08,08,00,17,18.10
2014,08,08,00,18,18.30
2014,08,08,00,19,18.40
2014,08,08,00,20,18.50
2014,08,08,00,21,18.70
2014,08,08,00,22,18.80
2014,08,08,00,23,18.80
2014,08,08,00,24,18.90
2014,08,08,00,25,19.00
2014,08,08,00,26,19.10
2014,08,08,00,27,19.10
2014,08,08,00,28,19.20
2014,08,08,00,29,19.20
2014,08,08,00,30,19.30
2014,08,08,00,31,19.30
2014,08,08,00,32,19.40
2014,08,08,00,33,19.40
2014,08,08,00,34,19.50
2014,08,08,00,35,19.50
2014,08,08,00,36,19.50
2014,08,08,00,37,19.50
2014,08,08,00,38,19.50
2014,08,08,00,39,19.50
2014,08,08,00,40,19.50
2014,08,08,00,41,19.40
2014,08,08,00,42,19.40
2014,08,08,00,43,19.40
2014,08,08,00,44,19.40
2014,08,08,00,45,19.40
2014,08,08,00,46,19.40
2014,08,08,00,47,19.40
2014,08,08,00,48,19.40
2014,08,08,00,49,19.40
2014,08,08,00,50,19.40
2014,08,08,00,51,19.30
2014,08,08,00,52,19.30
2014,08,08,00,53,19.30
2014,08,08,00,54,19.30
2014,08,08,00,55,19.30
2014,08,08,00,56,19.30
2014,08,08,00,57,19.30
2014,08,08,00,58,19.30
2014,08,08,00,59,19.30
2014,08,08,01,00,19.40
2014,08,08,01,01,19.40
2014,08,08,01,02,19.40
2014,08,08,01,03,19.40
2014,08,08,01,04,19.40
2014,08,08,01,05,19.40
2014,08,08,01,06,19.40
2014,08,08,01,07,19.40
2014,08,08,01,08,19.40
2014,08,08,01,09,19.40
2014,08,08,01,10,19.40
2014,08,08,01,11,19.40
2014,08,08,01,12,19.40
2014,08,08,01,13,19.50
2014,08,08,01,14,19.50
2014,08,08,01,15,19.50
2014,08,08,01,16,19.50
2014,08,08,01,17,19.50
2014,08,08,01,18,19.50
2014,08,08,01,19,19.50
2014,08,08,01,20,19.50
2014,08,08,01,21,19.40
2014,08,08,01,22,19.40
2014,08,08,01,23,19.40
2014,08,08,01,24,19.40
2014,08,08,01,25,19.40
2014,08,08,01,26,19.40
2014,08,08,01,27,19.40
2014,08,08,01,28,19.40
2014,08,08,01,29,19.40
2014,08,08,01,30,19.30
2014,08,08,01,31,19.30
2014,08,08,01,32,19.30
2014,08,08,01,33,19.30
2014,08,08,01,34,19.30
2014,08,08,01,35,19.30
2014,08,08,01,36,19.30
2014,08,08,01,37,19.30
2014,08,08,01,38,19.20
2014,08,08,01,39,19.20
2014,08,08,01,40,19.20
2014,08,08,01,41,19.30
2014,08,08,01,42,19.30
2014,08,08,01,43,19.30
2014,08,08,01,44,19.20
2014,08,08,01,45,19.20
2014,08,08,01,46,19.30
2014,08,08,01,47,19.20
2014,08,08,01,48,19.20
2014,08,08,01,49,19.20
2014,08,08,01,50,19.20
2014,08,08,01,51,19.20
2014,08,08,01,52,19.10
2014,08,08,01,53,19.10
2014,08,08,01,54,19.10
2014,08,08,01,55,19.10
2014,08,08,01,56,19.00
2014,08,08,01,57,19.00
2014,08,08,01,58,18.90
2014,08,08,01,59,18.90
2014,08,08,02,00,18.90
2014,08,08,02,01,18.90
2014,08,08,02,02,18.80
2014,08,08,02,03,18.80
2014,08,08,02,04,18.80
2014,08,08,02,05,18.80
2014,08,08,02,06,18.70
2014,08,08,02,07,18.70
2014,08,08,02,08,18.70
2014,08,08,02,09,18.70
2014,08,08,02,10,18.70
2014,08,08,02,11,18.70
2014,08,08,02,12,18.70
2014,08,08,02,13,18.70
2014,08,08,02,14,18.70
2014,08,08,02,15,18.60
2014,08,08,02,16,18.60
2014,08,08,02,17,18.60
2014,08,08,02,18,18.60
2014,08,08,02,19,18.60
2014,08,08,02,20,18.60
2014,08,08,02,21,18.60
2014,08,08,02,22,18.60
2014,08,08,02,23,18.60
2014,08,08,02,24,18.60
2014,08,08,02,25,18.60
2014,08,08,02,26,18.50
2014,08,08,02,27,18.50
2014,08,08,02,28,18.50
2014,08,08,02,29,18.50
2014,08,08,02,30,18.60
2014,08,08,02,31,18.60
2014,08,08,02,32,18.60
2014,08,08,02,33,18.60
2014,08,08,02,34,18.60
2014,08,08,02,35,18.60
2014,08,08,02,36,18.60
2014,08,08,02,37,18.60
2014,08,08,02,38,18.60
2014,08,08,02,39,18.70
2014,08,08,02,40,18.70
2014,08,08,02,41,18.70
2014,08,08,02,42,18.70
2014,08,08,02,43,18.70
2014,08,08,02,44,18.70
2014,08,08,02,45,18.70
2014,08,08,02,46,18.70
2014,08,08,02,47,18.70
2014,08,08,02,48,18.70
2014,08,08,02,49,18.70
2014,08,08,02,50,18.70
2014,08,08,02,51,18.70
2014,08,08,02,52,18.70
2014,08,08,02,53,18.70
2014,08,08,02,54,18.70
2014,08,08,02,55,18.70
2014,08,08,02,56,18.70
2014,08,08,02,57,18.70
2014,08,08,02,58,18.70
2014,08,08,02,59,18.70
2014,08,08,03,00,18.70
2014,08,08,03,01,18.80
2014,08,08,03,02,18.80
2014,08,08,03,03,18.80
2014,08,08,03,04,18.80
2014,08,08,03,05,18.80
2014,08,08,03,06,18.80
2014,08,08,03,07,18.80
2014,08,08,03,08,18.80
2014,08,08,03,09,18.80
2014,08,08,03,10,18.80
2014,08,08,03,11,18.80
2014,08,08,03,12,18.80
2014,08,08,03,13,18.80
2014,08,08,03,14,18.80
2014,08,08,03,15,18.80
2014,08,08,03,16,18.80
2014,08,08,03,17,18.80
2014,08,08,03,18,18.80
2014,08,08,03,19,18.80
2014,08,08,03,20,18.80
2014,08,08,03,21,18.80
2014,08,08,03,22,18.80
2014,08,08,03,23,18.80
2014,08,08,03,24,18.80
2014,08,08,03,25,18.80
2014,08,08,03,26,18.80
2014,08,08,03,27,18.80
2014,08,08,03,28,18.80
2014,08,08,03,29,18.80
2014,08,08,03,30,18.80
2014,08,08,03,31,18.80
2014,08,08,03,32,18.80
2014,08,08,03,33,18.80
2014,08,08,03,34,18.80
2014,08,08,03,35,18.80
2014,08,08,03,36,18.80
2014,08,08,03,37,18.80
2014,08,08,03,38,18.70
2014,08,08,03,39,18.70
2014,08,08,03,40,18.70
2014,08,08,03,41,18.70
2014,08,08,03,42,18.70
2014,08,08,03,43,18.60
2014,08,08,03,44,18.60
2014,08,08,03,45,18.60
2014,08,08,03,46,18.60
2014,08,08,03,47,18.60
2014,08,08,03,48,18.60
2014,08,08,03,49,18.60
2014,08,08,03,50,18.50
2014,08,08,03,51,18.50
2014,08,08,03,52,18.50
2014,08,08,03,53,18.50
2014,08,08,03,54,18.50
2014,08,08,03,55,18.50
2014,08,08,03,56,18.50
2014,08,08,03,57,18.50
2014,08,08,03,58,18.40
2014,08,08,03,59,18.40
2014,08,08,04,00,18.40
2014,08,08,04,01,18.40
2014,08,08,04,02,18.40
2014,08,08,04,03,18.40
2014,08,08,04,04,18.40
2014,08,08,04,05,18.30
2014,08,08,04,06,18.30
2014,08,08,04,07,18.30
2014,08,08,04,08,18.30
2014,08,08,04,09,18.30
2014,08,08,04,10,18.30
2014,08,08,04,11,18.30
2014,08,08,04,12,18.20
2014,08,08,04,13,18.20
2014,08,08,04,14,18.20
2014,08,08,04,15,18.20
2014,08,08,04,16,18.20
2014,08,08,04,17,18.20
2014,08,08,04,18,18.20
2014,08,08,04,19,18.20
2014,08,08,04,20,18.10
2014,08,08,04,21,18.10
2014,08,08,04,22,18.10
2014,08,08,04,23,18.10
2014,08,08,04,24,18.10
2014,08,08,04,25,18.10
2014,08,08,04,26,18.00
2014,08,08,04,27,18.00
2014,08,08,04,28,18.00
2014,08,08,04,29,18.00
2014,08,08,04,30,18.00
2014,08,08,04,31,17.90
2014,08,08,04,32,18.00
2014,08,08,04,33,17.90
2014,08,08,04,34,17.90
2014,08,08,04,35,17.90
2014,08,08,04,36,17.90
2014,08,08,04,37,17.90
2014,08,08,04,38,17.90
2014,08,08,04,39,17.90
2014,08,08,04,40,18.00
2014,08,08,04,41,18.00
2014,08,08,04,42,18.00
2014,08,08,04,43,18.00
2014,08,08,04,44,18.00
2014,08,08,04,45,18.00
2014,08,08,04,46,17.90
2014,08,08,04,47,17.90
2014,08,08,04,48,17.90
2014,08,08,04,49,17.90
2014,08,08,04,50,17.90
2014,08,08,04,51,17.90
2014,08,08,04,52,17.90
2014,08,08,04,53,17.90
2014,08,08,04,54,17.90
2014,08,08,04,55,17.80
2014,08,08,04,56,17.80
2014,08,08,04,57,17.80
2014,08,08,04,58,17.80
2014,08,08,04,59,17.80
2014,08,08,05,00,17.80
2014,08,08,05,01,17.80
2014,08,08,05,02,17.80
2014,08,08,05,03,17.80
2014,08,08,05,04,17.80
2014,08,08,05,05,17.80
2014,08,08,05,06,17.80
2014,08,08,05,07,17.80
2014,08,08,05,08,17.70
2014,08,08,05,09,17.70
2014,08,08,05,10,17.70
2014,08,08,05,11,17.70
2014,08,08,05,12,17.70
2014,08,08,05,13,17.70
2014,08,08,05,14,17.70
2014,08,08,05,15,17.70
2014,08,08,05,16,17.70
2014,08,08,05,17,17.60
2014,08,08,05,18,17.60
2014,08,08,05,19,17.60
2014,08,08,05,20,17.60
2014,08,08,05,21,17.60
2014,08,08,05,22,17.60
2014,08,08,05,23,17.50
2014,08,08,05,24,17.50
2014,08,08,05,25,17.40
2014,08,08,05,26,17.40
2014,08,08,05,27,17.40
2014,08,08,05,28,17.40
2014,08,08,05,29,17.40
2014,08,08,05,30,17.40
2014,08,08,05,31,17.40
2014,08,08,05,32,17.40
2014,08,08,05,33,17.40
2014,08,08,05,34,17.40
2014,08,08,05,35,17.30
2014,08,08,05,36,17.30
2014,08,08,05,37,17.30
2014,08,08,05,38,17.30
2014,08,08,05,39,17.30
2014,08,08,05,40,17.30
2014,08,08,05,41,17.30
2014,08,08,05,42,17.30
2014,08,08,05,43,17.30
2014,08,08,05,44,17.20
2014,08,08,05,45,17.20
2014,08,08,05,46,17.20
2014,08,08,05,47,17.20
2014,08,08,05,48,17.20
2014,08,08,05,49,17.20
2014,08,08,05,50,17.20
2014,08,08,05,51,17.20
2014,08,08,05,52,17.10
2014,08,08,05,53,17.10
2014,08,08,05,54,17.10
2014,08,08,05,55,17.10
2014,08,08,05,56,17.10
2014,08,08,05,57,17.10
2014,08,08,05,58,17.10
2014,08,08,05,59,17.00
2014,08,08,06,00,17.00
2014,08,08,06,01,17.00
2014,08,08,06,02,16.90
2014,08,08,06,03,16.90
2014,08,08,06,04,16.90
2014,08,08,06,05,16.90
2014,08,08,06,06,16.90
2014,08,08,06,07,16.80
2014,08,08,06,08,16.80
2014,08,08,06,09,16.80
2014,08,08,06,10,16.80
2014,08,08,06,11,16.70
2014,08,08,06,12,16.70
2014,08,08,06,13,16.70
2014,08,08,06,14,16.70
2014,08,08,06,15,16.70
2014,08,08,06,16,16.70
2014,08,08,06,17,16.80
2014,08,08,06,18,16.80
2014,08,08,06,19,16.80
2014,08,08,06,20,16.80
2014,08,08,06,21,16.80
2014,08,08,06,22,16.70
2014,08,08,06,23,16.70
2014,08,08,06,24,16.70
2014,08,08,06,25,16.60
2014,08,08,06,26,16.60
2014,08,08,06,27,16.50
2014,08,08,06,28,16.50
2014,08,08,06,29,16.40
2014,08,08,06,30,16.40
2014,08,08,06,31,16.40
2014,08,08,06,32,16.40
2014,08,08,06,33,16.40
2014,08,08,06,34,16.30
2014,08,08,06,35,16.30
2014,08,08,06,36,16.30
2014,08,08,06,37,16.30
2014,08,08,06,38,16.30
2014,08,08,06,39,16.30
2014,08,08,06,40,16.30
2014,08,08,06,41,16.30
2014,08,08,06,42,16.30
2014,08,08,06,43,16.30
2014,08,08,06,44,16.40
2014,08,08,06,45,16.40
2014,08,08,06,46,16.40
2014,08,08,06,47,16.50
2014,08,08,06,48,16.60
2014,08,08,06,49,16.60
2014,08,08,06,50,16.70
2014,08,08,06,51,16.70
2014,08,08,06,52,16.80
2014,08,08,06,53,16.80
2014,08,08,06,54,16.80
2014,08,08,06,55,16.90
2014,08,08,06,56,16.90
2014,08,08,06,57,17.00
2014,08,08,06,58,17.00
2014,08,08,06,59,17.10
2014,08,08,07,00,17.20
2014,08,08,07,01,17.20
2014,08,08,07,02,17.20
2014,08,08,07,03,17.30
2014,08,08,07,04,17.30
2014,08,08,07,05,17.40
2014,08,08,07,06,17.40
2014,08,08,07,07,17.40
2014,08,08,07,08,17.50
2014,08,08,07,09,17.50
2014,08,08,07,10,17.60
2014,08,08,07,11,17.60
2014,08,08,07,12,17.60
2014,08,08,07,13,17.70
2014,08,08,07,14,17.70
2014,08,08,07,15,17.80
2014,08,08,07,16,17.90
2014,08,08,07,17,17.90
2014,08,08,07,18,17.90
2014,08,08,07,19,18.00
2014,08,08,07,20,18.00
2014,08,08,07,21,18.00
2014,08,08,07,22,18.00
2014,08,08,07,23,18.00
2014,08,08,07,24,18.00
2014,08,08,07,25,18.00
2014,08,08,07,26,18.00
2014,08,08,07,27,18.00
2014,08,08,07,28,18.10
2014,08,08,07,29,18.10
2014,08,08,07,30,18.10
2014,08,08,07,31,18.10
2014,08,08,07,32,18.10
2014,08,08,07,33,18.10
2014,08,08,07,34,18.10
2014,08,08,07,35,18.20
2014,08,08,07,36,18.20
2014,08,08,07,37,18.20
2014,08,08,07,38,18.20
2014,08,08,07,39,18.30
2014,08,08,07,40,18.30
2014,08,08,07,41,18.30
2014,08,08,07,42,18.30
2014,08,08,07,43,18.30
2014,08,08,07,44,18.40
2014,08,08,07,45,18.40
2014,08,08,07,46,18.40
2014,08,08,07,47,18.40
2014,08,08,07,48,18.40
2014,08,08,07,49,18.40
2014,08,08,07,50,18.40
2014,08,08,07,51,18.40
2014,08,08,07,52,18.50
2014,08,08,07,53,18.50
2014,08,08,07,54,18.50
2014,08,08,07,55,18.60
2014,08,08,07,56,18.60
2014,08,08,07,57,18.60
2014,08,08,07,58,18.60
2014,08,08,07,59,18.60
2014,08,08,08,00,18.70
2014,08,08,08,01,18.70
2014,08,08,08,02,18.70
2014,08,08,08,03,18.70
2014,08,08,08,04,18.80
2014,08,08,08,05,18.80
2014,08,08,08,06,18.80
2014,08,08,08,07,18.80
2014,08,08,08,08,18.80
2014,08,08,08,09,18.90
2014,08,08,08,10,18.90
2014,08,08,08,11,18.90
2014,08,08,08,12,18.90
2014,08,08,08,13,19.00
2014,08,08,08,14,19.00
2014,08,08,08,15,19.10
2014,08,08,08,16,19.10
2014,08,08,08,17,19.10
2014,08,08,08,18,19.20
2014,08,08,08,19,19.20
2014,08,08,08,20,19.20
2014,08,08,08,21,19.20
2014,08,08,08,22,19.20
2014,08,08,08,23,19.30
2014,08,08,08,24,19.30
2014,08,08,08,25,19.30
2014,08,08,08,26,19.30
2014,08,08,08,27,19.30
2014,08,08,08,28,19.30
2014,08,08,08,29,19.30
2014,08,08,08,30,19.30
2014,08,08,08,31,19.40
2014,08,08,08,32,19.40
2014,08,08,08,33,19.40
2014,08,08,08,34,19.40
2014,08,08,08,35,19.40
2014,08,08,08,36,19.40
2014,08,08,08,37,19.50
2014,08,08,08,38,19.50
2014,08,08,08,39,19.50
2014,08,08,08,40,19.60
2014,08,08,08,41,19.60
2014,08,08,08,42,19.60
2014,08,08,08,43,19.60
2014,08,08,08,44,19.70
2014,08,08,08,45,19.70
2014,08,08,08,46,19.70
2014,08,08,08,47,19.70
2014,08,08,08,48,19.70
2014,08,08,08,49,19.70
2014,08,08,08,50,19.80
2014,08,08,08,51,19.80
2014,08,08,08,52,19.80
2014,08,08,08,53,19.80
2014,08,08,08,54,19.90
2014,08,08,08,55,19.90
2014,08,08,08,56,19.90
2014,08,08,08,57,19.90
2014,08,08,08,58,20.00
2014,08,08,08,59,20.00
2014,08,08,09,00,20.00
2014,08,08,09,01,20.00
2014,08,08,09,02,20.00
2014,08,08,09,03,20.00
2014,08,08,09,04,20.10
2014,08,08,09,05,20.10
2014,08,08,09,06,20.10
2014,08,08,09,07,20.20
2014,08,08,09,08,20.20
2014,08,08,09,09,20.20
2014,08,08,09,10,20.20
2014,08,08,09,11,20.20
2014,08,08,09,12,20.20
2014,08,08,09,13,20.20
2014,08,08,09,14,20.20
2014,08,08,09,15,20.20
2014,08,08,09,16,20.20
2014,08,08,09,17,20.20
2014,08,08,09,18,20.20
2014,08,08,09,19,20.20
2014,08,08,09,20,20.20
2014,08,08,09,21,20.30
2014,08,08,09,22,20.30
2014,08,08,09,23,20.30
2014,08,08,09,24,20.40
2014,08,08,09,25,20.40
2014,08,08,09,26,20.40
2014,08,08,09,27,20.50
2014,08,08,09,28,20.50
2014,08,08,09,29,20.40
2014,08,08,09,30,20.40
2014,08,08,09,31,20.40
2014,08,08,09,32,20.40
2014,08,08,09,33,20.50
2014,08,08,09,34,20.50
2014,08,08,09,35,20.50
2014,08,08,09,36,20.60
2014,08,08,09,37,20.50
2014,08,08,09,38,20.60
2014,08,08,09,39,20.60
2014,08,08,09,40,20.60
2014,08,08,09,41,20.60
2014,08,08,09,42,20.60
2014,08,08,09,43,20.70
2014,08,08,09,44,20.80
2014,08,08,09,45,20.80
2014,08,08,09,46,20.90
2014,08,08,09,47,20.90
2014,08,08,09,48,20.90
2014,08,08,09,49,21.00
2014,08,08,09,50,21.00
2014,08,08,09,51,20.90
2014,08,08,09,52,20.90
2014,08,08,09,53,20.90
2014,08,08,09,54,20.90
2014,08,08,09,55,20.90
2014,08,08,09,56,20.90
2014,08,08,09,57,21.00
2014,08,08,09,58,21.00
2014,08,08,09,59,21.10
2014,08,08,10,00,21.10
2014,08,08,10,01,21.10
2014,08,08,10,02,21.00
2014,08,08,10,03,20.90
2014,08,08,10,04,20.90
2014,08,08,10,05,20.90
2014,08,08,10,06,21.00
2014,08,08,10,07,21.00
2014,08,08,10,08,21.10
2014,08,08,10,09,21.10
2014,08,08,10,10,21.10
2014,08,08,10,11,21.10
2014,08,08,10,12,21.10
2014,08,08,10,13,21.10
2014,08,08,10,14,21.20
2014,08,08,10,15,21.20
2014,08,08,10,16,21.20
2014,08,08,10,17,21.30
2014,08,08,10,18,21.40
2014,08,08,10,19,21.50
2014,08,08,10,20,21.50
2014,08,08,10,21,21.60
2014,08,08,10,22,21.50
2014,08,08,10,23,21.50
2014,08,08,10,24,21.50
2014,08,08,10,25,21.60
2014,08,08,10,26,21.60
2014,08,08,10,27,21.70
2014,08,08,10,28,21.70
2014,08,08,10,29,21.70
2014,08,08,10,30,21.70
2014,08,08,10,31,21.70
2014,08,08,10,32,21.70
2014,08,08,10,33,21.70
2014,08,08,10,34,21.70
2014,08,08,10,35,21.70
2014,08,08,10,36,21.70
2014,08,08,10,37,21.80
2014,08,08,10,38,21.80
2014,08,08,10,39,21.80
2014,08,08,10,40,21.80
2014,08,08,10,41,21.70
2014,08,08,10,42,21.70
2014,08,08,10,43,21.70
2014,08,08,10,44,21.70
2014,08,08,10,45,21.70
2014,08,08,10,46,21.70
2014,08,08,10,47,21.70
2014,08,08,10,48,21.60
2014,08,08,10,49,21.60
2014,08,08,10,50,21.50
2014,08,08,10,51,21.50
2014,08,08,10,52,21.50
2014,08,08,10,53,21.50
2014,08,08,10,54,21.50
2014,08,08,10,55,21.50
2014,08,08,10,56,21.40
2014,08,08,10,57,21.50
2014,08,08,10,58,21.50
2014,08,08,10,59,21.60
2014,08,08,11,00,21.60
2014,08,08,11,01,21.70
2014,08,08,11,02,21.80
2014,08,08,11,03,21.90
2014,08,08,11,04,22.00
2014,08,08,11,05,22.00
2014,08,08,11,06,22.10
2014,08,08,11,07,22.00
2014,08,08,11,08,22.00
2014,08,08,11,09,22.00
2014,08,08,11,10,22.00
2014,08,08,11,11,22.10
2014,08,08,11,12,22.10
2014,08,08,11,13,22.20
2014,08,08,11,14,22.20
2014,08,08,11,15,22.20
2014,08,08,11,16,22.20
2014,08,08,11,17,22.20
2014,08,08,11,18,22.30
2014,08,08,11,19,22.30
2014,08,08,11,20,22.30
2014,08,08,11,21,22.30
2014,08,08,11,22,22.20
2014,08,08,11,23,22.20
2014,08,08,11,24,22.20
2014,08,08,11,25,22.20
2014,08,08,11,26,22.20
2014,08,08,11,27,22.30
2014,08,08,11,28,22.30
2014,08,08,11,29,22.30
2014,08,08,11,30,22.30
2014,08,08,11,31,22.30
2014,08,08,11,32,22.30
2014,08,08,11,33,22.40
2014,08,08,11,34,22.40
2014,08,08,11,35,22.40
2014,08,08,11,36,22.40
2014,08,08,11,37,22.40
2014,08,08,11,38,22.50
2014,08,08,11,39,22.70
2014,08,08,11,40,22.80
2014,08,08,11,41,22.80
2014,08,08,11,42,22.90
2014,08,08,11,43,22.90
2014,08,08,11,44,23.00
2014,08,08,11,45,23.00
2014,08,08,11,46,23.10
2014,08,08,11,47,23.10
2014,08,08,11,48,23.20
2014,08,08,11,49,23.30
2014,08,08,11,50,23.30
2014,08,08,11,51,23.40
2014,08,08,11,52,23.30
2014,08,08,11,53,23.40
2014,08,08,11,54,23.40
2014,08,08,11,55,23.40
2014,08,08,11,56,23.40
2014,08,08,11,57,23.40
2014,08,08,11,58,23.40
2014,08,08,11,59,23.40
2014,08,08,12,00,23.30
2014,08,08,12,01,23.30
2014,08,08,12,02,23.30
2014,08,08,12,03,23.20
2014,08,08,12,04,23.10
2014,08,08,12,05,23.00
2014,08,08,12,06,23.00
2014,08,08,12,07,23.00
2014,08,08,12,08,23.10
2014,08,08,12,09,23.10
2014,08,08,12,10,23.10
2014,08,08,12,11,23.20
2014,08,08,12,12,23.20
2014,08,08,12,13,23.20
2014,08,08,12,14,23.20
2014,08,08,12,15,23.30
2014,08,08,12,16,23.30
2014,08,08,12,17,23.20
2014,08,08,12,18,23.30
2014,08,08,12,19,23.40
2014,08,08,12,20,23.50
2014,08,08,12,21,23.60
2014,08,08,12,22,23.70
2014,08,08,12,23,23.60
2014,08,08,12,24,23.50
2014,08,08,12,25,23.50
2014,08,08,12,26,23.50
2014,08,08,12,27,23.40
2014,08,08,12,28,23.20
2014,08,08,12,29,23.10
2014,08,08,12,30,23.00
2014,08,08,12,31,22.90
2014,08,08,12,32,22.90
2014,08,08,12,33,22.80
2014,08,08,12,34,22.80
2014,08,08,12,35,22.70
2014,08,08,12,36,22.70
2014,08,08,12,37,22.70
2014,08,08,12,38,22.70
2014,08,08,12,39,22.70
2014,08,08,12,40,22.80
2014,08,08,12,41,22.80
2014,08,08,12,42,22.80
2014,08,08,12,43,22.70
2014,08,08,12,44,22.70
2014,08,08,12,45,22.50
2014,08,08,12,46,22.40
2014,08,08,12,47,22.40
2014,08,08,12,48,22.40
2014,08,08,12,49,22.50
2014,08,08,12,50,22.60
2014,08,08,12,51,22.60
2014,08,08,12,52,22.70
2014,08,08,12,53,22.70
2014,08,08,12,54,22.70
2014,08,08,12,55,22.70
2014,08,08,12,56,22.70
2014,08,08,12,57,22.60
2014,08,08,12,58,22.50
2014,08,08,12,59,22.40
2014,08,08,13,00,22.40
2014,08,08,13,01,22.40
2014,08,08,13,02,22.40
2014,08,08,13,03,22.40
2014,08,08,13,04,22.40
2014,08,08,13,05,22.40
2014,08,08,13,06,22.30
2014,08,08,13,07,22.20
2014,08,08,13,08,22.20
2014,08,08,13,09,22.20
2014,08,08,13,10,22.20
2014,08,08,13,11,22.30
2014,08,08,13,12,22.40
2014,08,08,13,13,22.60
2014,08,08,13,14,22.80
2014,08,08,13,15,22.90
2014,08,08,13,16,23.00
2014,08,08,13,17,23.10
2014,08,08,13,18,23.10
2014,08,08,13,19,23.10
2014,08,08,13,20,23.10
2014,08,08,13,21,23.00
2014,08,08,13,22,22.80
2014,08,08,13,23,22.60
2014,08,08,13,24,22.50
2014,08,08,13,25,22.40
2014,08,08,13,26,22.30
2014,08,08,13,27,22.20
2014,08,08,13,28,22.10
2014,08,08,13,29,22.00
2014,08,08,13,30,22.10
2014,08,08,13,31,22.10
2014,08,08,13,32,22.20
2014,08,08,13,33,22.20
2014,08,08,13,34,22.30
2014,08,08,13,35,22.30
2014,08,08,13,36,22.40
2014,08,08,13,37,22.30
2014,08,08,13,38,22.20
2014,08,08,13,39,22.10
2014,08,08,13,40,22.00
2014,08,08,13,41,21.90
2014,08,08,13,42,22.00
2014,08,08,13,43,22.10
2014,08,08,13,44,22.10
2014,08,08,13,45,22.10
2014,08,08,13,46,22.00
2014,08,08,13,47,21.80
2014,08,08,13,48,21.60
2014,08,08,13,49,21.50
2014,08,08,13,50,21.40
2014,08,08,13,51,21.40
2014,08,08,13,52,21.60
2014,08,08,13,53,21.70
2014,08,08,13,54,21.80
2014,08,08,13,55,21.80
2014,08,08,13,56,21.80
2014,08,08,13,57,21.70
2014,08,08,13,58,21.60
2014,08,08,13,59,21.50
2014,08,08,14,00,21.40
2014,08,08,14,01,21.50
2014,08,08,14,02,21.60
2014,08,08,14,03,21.70
2014,08,08,14,04,21.80
2014,08,08,14,05,21.90
2014,08,08,14,06,22.00
2014,08,08,14,07,22.10
2014,08,08,14,08,22.10
2014,08,08,14,09,22.10
2014,08,08,14,10,22.20
2014,08,08,14,11,22.20
2014,08,08,14,12,22.30
2014,08,08,14,13,22.30
2014,08,08,14,14,22.30
2014,08,08,14,15,22.30
2014,08,08,14,16,22.40
2014,08,08,14,17,22.50
2014,08,08,14,18,22.70
2014,08,08,14,19,22.80
2014,08,08,14,20,22.80
2014,08,08,14,21,22.80
2014,08,08,14,22,22.80
2014,08,08,14,23,22.80
2014,08,08,14,24,22.70
2014,08,08,14,25,22.70
2014,08,08,14,26,22.80
2014,08,08,14,27,22.80
2014,08,08,14,28,22.80
2014,08,08,14,29,22.80
2014,08,08,14,30,22.70
2014,08,08,14,31,22.70
2014,08,08,14,32,22.70
2014,08,08,14,33,22.70
2014,08,08,14,34,22.80
2014,08,08,14,35,22.80
2014,08,08,14,36,22.80
2014,08,08,14,37,22.80
2014,08,08,14,38,22.80
2014,08,08,14,39,22.80
2014,08,08,14,40,22.80
2014,08,08,14,41,22.80
2014,08,08,14,42,22.80
2014,08,08,14,43,22.80
2014,08,08,14,44,22.80
2014,08,08,14,45,22.80
2014,08,08,14,46,22.90
2014,08,08,14,47,22.90
2014,08,08,14,48,22.80
2014,08,08,14,49,22.70
2014,08,08,14,50,22.70
2014,08,08,14,51,22.70
2014,08,08,14,52,22.70
2014,08,08,14,53,22.80
2014,08,08,14,54,22.80
2014,08,08,14,55,22.90
2014,08,08,14,56,22.90
2014,08,08,14,57,23.00
2014,08,08,14,58,23.00
2014,08,08,14,59,23.00
2014,08,08,15,00,23.10
2014,08,08,15,01,23.10
2014,08,08,15,02,23.20
2014,08,08,15,03,23.20
2014,08,08,15,04,23.30
2014,08,08,15,05,23.30
2014,08,08,15,06,23.40
2014,08,08,15,07,23.40
2014,08,08,15,08,23.40
2014,08,08,15,09,23.40
2014,08,08,15,10,23.40
2014,08,08,15,11,23.40
2014,08,08,15,12,23.40
2014,08,08,15,13,23.40
2014,08,08,15,14,23.40
2014,08,08,15,15,23.30
2014,08,08,15,16,23.30
2014,08,08,15,17,23.30
2014,08,08,15,18,23.40
2014,08,08,15,19,23.40
2014,08,08,15,20,23.40
2014,08,08,15,21,23.40
2014,08,08,15,22,23.40
2014,08,08,15,23,23.40
2014,08,08,15,24,23.40
2014,08,08,15,25,23.40
2014,08,08,15,26,23.40
2014,08,08,15,27,23.40
2014,08,08,15,28,23.40
2014,08,08,15,29,23.40
2014,08,08,15,30,23.30
2014,08,08,15,31,23.20
2014,08,08,15,32,23.10
2014,08,08,15,33,23.00
2014,08,08,15,34,22.90
2014,08,08,15,35,22.80
2014,08,08,15,36,22.80
2014,08,08,15,37,22.70
2014,08,08,15,38,22.70
2014,08,08,15,39,22.80
2014,08,08,15,40,22.80
2014,08,08,15,41,22.90
2014,08,08,15,42,23.00
2014,08,08,15,43,23.10
2014,08,08,15,44,23.30
2014,08,08,15,45,23.30
2014,08,08,15,46,23.40
2014,08,08,15,47,23.50
2014,08,08,15,48,23.60
2014,08,08,15,49,23.60
2014,08,08,15,50,23.60
2014,08,08,15,51,23.50
2014,08,08,15,52,23.50
2014,08,08,15,53,23.50
2014,08,08,15,54,23.50
2014,08,08,15,55,23.50
2014,08,08,15,56,23.60
2014,08,08,15,57,23.60
2014,08,08,15,58,23.70
2014,08,08,15,59,23.80
2014,08,08,16,00,23.90
2014,08,08,16,01,23.90
2014,08,08,16,02,23.80
2014,08,08,16,03,23.80
2014,08,08,16,04,23.80
2014,08,08,16,05,23.70
2014,08,08,16,06,23.60
2014,08,08,16,07,23.60
2014,08,08,16,08,23.50
2014,08,08,16,09,23.50
2014,08,08,16,10,23.60
2014,08,08,16,11,23.60
2014,08,08,16,12,23.70
2014,08,08,16,13,23.70
2014,08,08,16,14,23.70
2014,08,08,16,15,23.60
2014,08,08,16,16,23.60
2014,08,08,16,17,23.60
2014,08,08,16,18,23.60
2014,08,08,16,19,23.60
2014,08,08,16,20,23.70
2014,08,08,16,21,23.70
2014,08,08,16,22,23.70
2014,08,08,16,23,23.80
2014,08,08,16,24,23.80
2014,08,08,16,25,23.80
2014,08,08,16,26,23.70
2014,08,08,16,27,23.70
2014,08,08,16,28,23.70
2014,08,08,16,29,23.70
2014,08,08,16,30,23.70
2014,08,08,16,31,23.80
2014,08,08,16,32,23.90
2014,08,08,16,33,23.80
2014,08,08,16,34,23.80
2014,08,08,16,35,23.80
2014,08,08,16,36,23.70
2014,08,08,16,37,23.80
2014,08,08,16,38,23.80
2014,08,08,16,39,23.80
2014,08,08,16,40,23.90
2014,08,08,16,41,23.90
2014,08,08,16,42,23.90
2014,08,08,16,43,23.90
2014,08,08,16,44,23.90
2014,08,08,16,45,23.90
2014,08,08,16,46,24.00
2014,08,08,16,47,24.10
2014,08,08,16,48,24.10
2014,08,08,16,49,24.20
2014,08,08,16,50,24.10
2014,08,08,16,51,24.10
2014,08,08,16,52,24.00
2014,08,08,16,53,24.00
2014,08,08,16,54,23.90
2014,08,08,16,55,23.90
2014,08,08,16,56,24.00
2014,08,08,16,57,24.00
2014,08,08,16,58,24.00
2014,08,08,16,59,24.00
2014,08,08,17,00,24.10
2014,08,08,17,01,24.10
2014,08,08,17,02,24.10
2014,08,08,17,03,24.10
2014,08,08,17,04,24.20
2014,08,08,17,05,24.30
2014,08,08,17,06,24.40
2014,08,08,17,07,24.40
2014,08,08,17,08,24.50
2014,08,08,17,09,24.50
2014,08,08,17,10,24.40
2014,08,08,17,11,24.40
2014,08,08,17,12,24.40
2014,08,08,17,13,24.40
2014,08,08,17,14,24.50
2014,08,08,17,15,24.50
2014,08,08,17,16,24.50
2014,08,08,17,17,24.60
2014,08,08,17,18,24.60
2014,08,08,17,19,24.60